User: anonymous   Login
Location: White Ridge parking lot
(35.4984°N, 106.8413°W)
Time: 09:37:48
(UTC-06:00)
Language:

POLYITAN 1 - Orbit

View from above orbital plane
View from above orbital plane
View from above satellite
View from above satellite

Ground track
Ground track

The orbit data is extracted from the following two-line orbital elements,

1 40042U 14033AJ  19295.72434992  .00000322  00000-0  40509-4 0  9996
2 40042  97.9127 215.5710 0014777   0.6807 359.4427 14.88720377289982
Epoch (UTC): 22 October 2019 17:23:03
Eccentricity: 0.0014777
inclination: 97.9127°
perigee height: 591 km
apogee height: 612 km
right ascension of ascending node: 215.5710°
argument of perigee: 0.6807°
revolutions per day: 14.88720377
mean anomaly at epoch: 359.4427°
orbit number at epoch: 28998

The dashed part of the orbit path shows where the satellite is in the earth's shadow,  

DLR